Regional Weather Roundup
Issued by NWS

Home | Current Version | Previous Version | Text Only | Print | Product List | Glossary On
Versions: 1 2 3 4 5 6 7 8 9 10 11 12 13 14 15 16 17 18 19 20 21 22 23 24 25 26 27 28 29 30 31 32 33 34 35 36 37 38 39 40 41 42 43 44 45 46 47 48 49 50
000
ASUS45 KREV 241810
RWRNV
NEVADA REGIONAL WEATHER ROUNDUP
NATIONAL WEATHER SERVICE RENO NV
1100 AM PDT TUE APR 24 2018

NOTE: "FAIR" INDICATES FEW OR NO CLOUDS BELOW 12,000 FEET WITH NO
SIGNIFICANT WEATHER AND/OR OBSTRUCTIONS TO VISIBILITY.

NVZ001-003-004-241900-
WESTERN NEVADA

CITY           SKY/WX    TMP DP  RH WIND       PRES   REMARKS
RENO           PTSUNNY   65  18  16 E9        30.21S
6HR MIN TEMP:  44; 6HR MAX TEMP:  65;

CARSON CITY    FAIR      63  18  17 E12       30.23F
MINDEN         FAIR      59  21  23 NE6       30.23S
SLIDE MTN        N/A     39  23  52 E16         N/A
FALLON         PTSUNNY   61  23  23 VRB3      30.21F
6HR MIN TEMP:  37; 6HR MAX TEMP:  61;

LOVELOCK       SUNNY     64  20  18 NE10G16   30.22S
6HR MIN TEMP:  43; 6HR MAX TEMP:  64;

HAWTHORNE      SUNNY     63  18  17 N8G14     30.20F
$$

NVZ002-CAZ072-073-241900-
NORTHERN AND CENTRAL SIERRA

CITY           SKY/WX    TMP DP  RH WIND       PRES   REMARKS
S. LAKE TAHOE  MOSUNNY   57  26  30 VRB7      30.22S
6HR MIN TEMP:  30; 6HR MAX TEMP:  57;

TRUCKEE        PTSUNNY   55  25  30 N5        30.23S
SQUAW VLY 8000   N/A     46  25  42 SE5         N/A
BLUE CANYON    SUNNY     64  26  23 S10       30.18R
MAMMOTH LAKES  FAIR      62  23  22 E8        30.25S
6HR MIN TEMP:  35; 6HR MAX TEMP:  63;

$$

NVZ030-031-036-241900-
NORTHERN NEVADA

CITY           SKY/WX    TMP DP  RH WIND       PRES   REMARKS
ELKO           SUNNY     58  20  22 N9        30.28F
6HR MIN TEMP:  27; 6HR MAX TEMP:  59;

WINNEMUCCA     SUNNY     62  24  23 NE12G22   30.25F
6HR MIN TEMP:  38; 6HR MAX TEMP:  62;

WENDOVER       SUNNY     59  26  28 SE8       30.32F
$$

NVZ035-037-241900-
CENTRAL NEVADA

CITY           SKY/WX    TMP DP  RH WIND       PRES   REMARKS
ELY            SUNNY     55  21  26 MISG      30.29F
6HR MIN TEMP:  26; 6HR MAX TEMP:  55;

EUREKA           N/A     55  20  25 VRB5      30.28F
6HR MIN TEMP:  31; 6HR MAX TEMP:  55;

$$

NVZ013-014-241900-
SOUTH CENTRAL NEVADA

CITY           SKY/WX    TMP DP  RH WIND       PRES   REMARKS
TONOPAH        SUNNY     67  21  17 VRB3      30.20S
6HR MIN TEMP:  46; 6HR MAX TEMP:  68;

$$

NVZ017-020-022-241900-
SOUTHERN NEVADA

CITY           SKY/WX    TMP DP  RH WIND       PRES   REMARKS
LAS VEGAS      MOSUNNY   82  25  12 NE10      30.04F
6HR MIN TEMP:  67; 6HR MAX TEMP:  83;

N. LAS VEGAS   SUNNY     82  21  10 VRB5      30.02S
6HR MIN TEMP:  67; 6HR MAX TEMP:  82;

NELLIS AFB     NOT AVBL
HENDERSON      MOSUNNY   81  27  14 VRB5      30.06S
6HR MIN TEMP:  65; 6HR MAX TEMP:  82;

MERCURY        SUNNY     80  25  13 N8        30.06S
6HR MIN TEMP:  61; 6HR MAX TEMP:  80;

$$



USA.gov is the U.S. government's official web portal to all federal, state and local government web resources and services.